Content
SEND FEEDBACK

Daily
Averages
Monthly
Summary
United States of America

NEW BURNSIDE, ILLINOIS


Home > North America > United States > Illinois
Elevation: 560 feet     Latitude: 37 35N     Longitude: 088 46W

WEATHER
 
SELECT A DAY
Number of Records: 288,567;   Date Range: 1/1/95 - 11/23/14
 
SHARE

PRINT THIS DATA

[ ← Previous Day ]
WEATHER ALMANAC - JANUARY 31, 2013
[ Next Day → ]
[ °C ]   °F
Weather ElementAverageHighLow
Temperature29.8 °F39.2 °F (1:55 pm)19.4 °F (11:55 pm)
Dewpoint18.1 °F33.8 °F (4:55 pm)6.8 °F (11:55 pm)
Humidity62 %100 % (4:55 pm)52 % (12:55 pm)
Barometer30.10 in30.36 in (11:55 pm)29.95 in (12:35 am)
Wind Speed11.7 mph18.4 mph (3:29 pm)
Wind Gust28.8 mph (6:55 pm)
Weather ElementAverage
Visibility10.3 mi
Wind DirectionWNW (280.2 °)

Weather ElementTotal
Precipitation---
Heating Degree Days35.7 (Base 65)
Averaged from 45 records on January 31, 2013
WEATHER CONDITIONS BREAKOUT
WIND DIRECTION BREAKOUT
WEATHER BY HOUR - JANUARY 31, 2013
[ °C ]   °F
Local TimeTemperatureDewpointHumidityBarometerVisibilityWind DirectionWind SpeedGust SpeedPrecipitationEventsConditions
12:35 AM32.0 °F19.4 °F60 %29.95 in10.0 miWest (260°)13.8 mph23.0 mphOvercast
12:55 AM32.0 °F19.4 °F60 %29.96 in10.0 miWest (270°)9.2 mph19.6 mphOvercast
1:15 AM32.0 °F19.4 °F60 %29.97 in10.0 miWest (260°)9.2 mph21.9 mphOvercast
1:35 AM32.0 °F19.4 °F60 %29.97 in10.0 miWest (280°)10.4 mph16.1 mphOvercast
1:55 AM32.0 °F19.4 °F60 %29.97 in10.0 miWest (270°)8.1 mph17.3 mphOvercast
2:15 AM32.0 °F19.4 °F60 %29.96 in10.0 miWest (270°)10.4 mph19.6 mphOvercast
2:35 AM32.0 °F19.4 °F60 %29.96 in10.0 miWest (270°)10.4 mph20.7 mphOvercast
2:55 AM32.0 °F19.4 °F60 %29.97 in10.0 miWNW (290°)10.4 mph19.6 mphOvercast
3:15 AM32.0 °F19.4 °F60 %29.97 in10.0 miWest (270°)5.8 mphOvercast
3:35 AM32.0 °F19.4 °F60 %29.97 in10.0 miWest (270°)9.2 mph17.3 mphOvercast
3:55 AM32.0 °F17.6 °F55 %29.97 in10.0 miWNW (290°)10.4 mph24.2 mphOvercast
4:15 AM30.2 °F19.4 °F64 %29.98 in10.0 miWest (270°)11.5 mph16.1 mphOvercast
4:35 AM32.0 °F19.4 °F60 %29.99 in10.0 miWest (270°)6.9 mph16.1 mphOvercast
4:55 AM32.0 °F19.4 °F60 %29.99 in10.0 miWest (270°)9.2 mph18.4 mphOvercast
5:15 AM32.0 °F19.4 °F60 %29.99 in10.0 miWest (270°)9.2 mphOvercast
5:35 AM32.0 °F19.4 °F60 %29.99 in10.0 miWest (270°)6.9 mphOvercast
6:50 AM30.2 °F19.4 °F64 %30.01 in10.0 miWest (270°)9.2 mphOvercast
7:55 AM30.2 °F19.4 °F64 %30.04 in10.0 miWest (260°)11.5 mphOvercast
8:55 AM32.0 °F19.4 °F60 %30.05 in10.0 miSW (230°)11.5 mphOvercast
9:55 AM33.8 °F21.2 °F60 %30.08 in10.0 miWSW (250°)11.5 mphOvercast
10:55 AM33.8 °F21.2 °F60 %30.09 in10.0 miWSW (240°)11.5 mphOvercast
11:55 AM35.6 °F21.2 °F56 %30.06 in20.0 miSW (230°)13.8 mphOvercast
12:55 PM37.4 °F21.2 °F52 %30.04 in20.0 miWSW (240°)11.5 mphMostly Cloudy
1:55 PM39.2 °F23.0 °F52 %30.01 in20.0 miSW (230°)11.5 mphMostly Cloudy
2:55 PM39.2 °F24.8 °F56 %30.02 in20.0 miWSW (250°)17.3 mph23.0 mphOvercast
3:29 PM37.4 °F26.6 °F65 %30.04 in1.5 miWSW (240°)18.4 mph23.0 mphSnowLight Snow
3:55 PM35.6 °F30.2 °F81 %30.06 in1.5 miWSW (250°)17.3 mph20.7 mphSnowSnow
4:55 PM33.8 °F33.8 °F100 %30.07 in0.8 miWest (270°)13.8 mphSnowLight Snow
5:55 PM33.8 °F28.4 °F81 %30.09 in10.0 miWNW (300°)18.4 mphOvercast
6:55 PM30.2 °F21.2 °F69 %30.16 in10.0 miNNW (330°)13.8 mph28.8 mphOvercast
7:15 PM28.4 °F19.4 °F69 %30.18 in10.0 miNW (310°)12.7 mph24.2 mphMostly Cloudy
7:35 PM28.4 °F17.6 °F64 %30.19 in10.0 miNW (320°)12.7 mph25.3 mphMostly Cloudy
7:55 PM26.6 °F15.8 °F64 %30.21 in10.0 miNW (320°)12.7 mph19.6 mphMostly Cloudy
8:15 PM26.6 °F14.0 °F59 %30.22 in10.0 miNW (310°)12.7 mph23.0 mphScattered Clouds
8:35 PM24.8 °F14.0 °F64 %30.24 in10.0 miWNW (300°)8.1 mph21.9 mphScattered Clouds
8:55 PM23.0 °F12.2 °F63 %30.25 in10.0 miNW (310°)15.0 mph21.9 mphClear
9:15 PM23.0 °F10.4 °F59 %30.26 in10.0 miNW (310°)11.5 mph23.0 mphClear
9:35 PM23.0 °F8.6 °F54 %30.28 in10.0 miNW (310°)13.8 mph24.2 mphClear
9:55 PM21.2 °F8.6 °F58 %30.30 in10.0 miWNW (300°)6.9 mph17.3 mphClear
10:15 PM21.2 °F8.6 °F58 %30.30 in10.0 miNW (310°)11.5 mph19.6 mphScattered Clouds
10:35 PM21.2 °F8.6 °F58 %30.31 in10.0 miNW (310°)15.0 mph20.7 mphOvercast
10:55 PM21.2 °F10.4 °F63 %30.32 in10.0 miNW (310°)11.5 mph21.9 mphOvercast
11:15 PM21.2 °F10.4 °F63 %30.33 in10.0 miNW (320°)11.5 mph16.1 mphOvercast
11:35 PM21.2 °F8.6 °F58 %30.35 in10.0 miNW (310°)15.0 mph23.0 mphOvercast
11:55 PM19.4 °F6.8 °F58 %30.36 in10.0 miNW (320°)12.7 mph20.7 mphScattered Clouds
Hourly data recorded from KMWA, located miles away from New Burnside, Illinois







STORIES FROM OUR PARTNERS